Regional Weather Roundup
Issued by NWS

Home | Current Version | Previous Version | Graphics & Text | Print | Product List | Glossary Off
Versions: 1 2 3 4 5 6 7 8 9 10 11 12 13 14 15 16 17 18 19 20 21 22 23 24 25 26 27 28 29 30 31 32 33 34 35 36 37 38 39 40 41 42 43 44 45 46 47 48 49 50

000
ASUS43 KMPX 230901
RWRMN
WEATHER ROUNDUP FOR MINNESOTA
NATIONAL WEATHER SERVICE TWIN CITIES/CHANHASSEN MN
400 AM CDT WED AUG 23 2017


NOTE: "FAIR" INDICATES FEW OR NO CLOUDS BELOW 12,000 FEET WITH NO
SIGNIFICANT WEATHER AND/OR OBSTRUCTIONS TO VISIBILITY. N/A MEANS
CURRENT SKY AND/OR WEATHER CONDITIONS ARE NOT AVAILABLE.

MNZ060>063-068>070-231000-
   Twin Cities Metro

CITY           SKY/WX    TMP DP  RH WIND       PRES   REMARKS
TWIN CITIES    CLEAR     60  49  66 CALM      30.07S
ST PAUL        CLEAR     57  51  80 CALM      30.08R
CRYSTAL        CLEAR     55  47  74 W5        30.06R
BLAINE         CLEAR     55  48  76 NW3       30.07S
LAKEVILLE      CLEAR     54  50  87 W3        30.08S
EDEN PRAIRIE   CLEAR     58  51  78 NW5       30.07S
SOUTH ST PAUL  CLEAR     57  50  77 CALM      30.07S
LAKE ELMO      FAIR      52  50  93 CALM      30.08R
$$
MNZ001>005-007-008-013>017-022>024-027-028-231000-
   Northwest Minnesota

CITY           SKY/WX    TMP DP  RH WIND       PRES   REMARKS
BEMIDJI        CLEAR     43  43 100 W3        30.08S
HALLOCK        CLEAR     45  43  93 CALM      30.08S FOG
ROSEAU         HAZE      48  43  81 CALM      30.08S VSB 1/4
WARROAD        CLEAR     48  46  93 W6        30.08S FOG
CROOKSTON      CLEAR     46  43  87 CALM      30.10S
FOSSTON        CLEAR     43  39  87 CALM      30.10S
DETROIT LAKES  CLEAR     54  48  82 CALM      30.11S
MOORHEAD       CLEAR     50  45  81 CALM      30.11S
PARK RAPIDS    CLEAR     47  44  90 W3        30.09S
MAHNOMEN       FAIR      46  44  91 CALM      30.10S
$$
MNZ006-009>011-018-025>026-231000-
   North Central Minnesota

CITY           SKY/WX    TMP DP  RH WIND       PRES   REMARKS
BAUDETTE       CLEAR     47  46  97 W6        30.07R
FLAG ISLAND      N/A     55  52  88 CALM      30.06R
INTL FALLS     CLOUDY    51  49  92 CALM      30.05R
WASKISH        CLEAR     48  48 100 CALM      30.07S
BIG FORK       FOG       45  43  93 CALM      30.06S VSB 1/2
LONGVILLE      CLEAR     46  46 100 CALM      30.07S FOG
GRAND RAPIDS   CLEAR     50  49  96 CALM      30.08R
CRANE LAKE     CLOUDY    52  50  93 CALM      30.05R
ORR            CLOUDY    52  48  87 NW3       30.03R
COOK           CLOUDY    48  48 100 W3        30.05R
WALKER         FAIR      49  47  95 CALM      30.08S
$$
MNZ012-019>021-037-231000-
   Northeast Minnesota

CITY           SKY/WX    TMP DP  RH WIND       PRES   REMARKS
DULUTH         CLEAR     50  49  96 N6        30.02S
ELY            PTCLDY    48  48 100 CALM      30.02S
HIBBING        PTCLDY    44  44 100 NW5       30.05R
EVELETH        CLEAR     53  47  82 NW3       30.05R
DULUTH HARBOR  CLEAR     59  54  82 NW16      30.02S
TWO HARBORS    CLEAR     55  50  82 NW5       29.99S
SILVER BAY     CLEAR     54  52  94 NW6       29.98R
GRAND MARAIS     N/A     55  51  86 CALM      29.96R
G MARAIS ARPRT PTCLDY    48  45  87 NW7       29.97R
$$
MNZ029>031-032-039>041-046>048-054>057-064-231000-
   West Central Minnesota

CITY           SKY/WX    TMP DP  RH WIND       PRES   REMARKS
FERGUS FALLS   CLEAR     50  48  93 CALM      30.11S
WHEATON        CLEAR     52  46  82 W5        30.13S
ELBOW LAKE     FAIR      49  47  94 SW5       30.11S
WADENA         CLEAR     46  45  93 CALM      30.09S
GLENWOOD       CLEAR     54  50  87 W5        30.11S
APPLETON       CLEAR     50  46  87 W5        30.11S
BENSON         CLEAR     48  46  93 CALM      30.13S FOG
ORTONVILLE     CLEAR     52  46  82 MISG      30.11F
MADISON        CLEAR     52  52 100 CALM      30.12S
WILLMAR        FAIR      52  48  87 CALM      30.13S
$$
MNZ033>034-036-042>043-049>051-058-059-231000-
   Central Minnesota

CITY           SKY/WX    TMP DP  RH WIND       PRES   REMARKS
ST CLOUD       CLEAR     52  48  86 NW5       30.08S
SAUK CENTRE    FAIR      50  48  93 CALM      30.10S
PAYNESVILLE    CLEAR     48  47  98 W7        30.11R
AITKIN         CLEAR     45  43  93 CALM      30.06S
PINE RIVER     CLEAR     48  46  93 NW3       30.11S
BRAINERD       CLEAR     48  47  96 CALM      30.08R
STAPLES        CLEAR     48  45  87 CALM      30.09S
LONG PRAIRIE   FAIR      54  46  76 CALM      30.10S
LITTLE FALLS   CLEAR     45  43  93 CALM      30.09R
LITCHFIELD     CLEAR     55  52  88 CALM      30.10S
BUFFALO        CLEAR     54  49  83 CALM      30.09S
MAPLE LAKE     CLEAR     54  50  87 CALM      30.09S
HUTCHINSON     CLEAR     51  50  97 CALM      30.11S
$$
MNZ037-044-045-052-053-231000-
   East Central Minnesota

CITY           SKY/WX    TMP DP  RH WIND       PRES   REMARKS
PRINCETON      CLEAR     52  48  87 W3        30.08R
MORA           CLEAR     50  46  87 CALM      30.08S
CAMBRIDGE      CLEAR     52  46  82 CALM      30.07S
RUSH CITY      MOCLDY    47  46  95 CALM      30.06S
MOOSE LAKE     CLEAR     50  48  93 CALM      30.04R
HINCKLEY       FAIR      50  50 100 W3        30.06S
CLOQUET        CLEAR     52  46  82 W6        30.04S
MCGREGOR       CLEAR     52  50  93 W5        30.07R
$$
MNZ071>073-080-081-089-090-097-098-231000-
   Southwest Minnesota

CITY           SKY/WX    TMP DP  RH WIND       PRES   REMARKS
MONTEVIDEO     CLEAR     52  48  87 W5        30.12S
GRANITE FALLS  CLEAR     50  49  95 SW6       30.14S
CANBY          CLEAR     56  48  75 CALM      30.14S
MARSHALL       CLEAR     52  49  89 W3        30.13S
REDWOOD FALLS  CLEAR     53  48  83 W7        30.11S
OLIVIA         CLEAR     50  46  87 W5        30.11S
PIPESTONE      CLEAR     52  48  87 CALM      30.16S
WINDOM         CLEAR     50  46  87 CALM      30.14S
WORTHINGTON    CLEAR     50  47  89 SW5       30.16S
JACKSON        CLEAR     50  46  87 CALM      30.14F
TRACY          CLEAR     55  50  84 SW8       30.14S
SLAYTON        CLEAR     50  42  74 CALM      30.16S
$$
MNZ065>067-074>077-082>085-091>093-231000-
   South Central Minnesota

CITY           SKY/WX    TMP DP  RH WIND       PRES   REMARKS
MANKATO        CLEAR     53  50  89 W5        30.11S
NEW ULM        CLEAR     52  48  87 W5        30.11S
ST JAMES       CLEAR     50  48  93 CALM      30.13S
FAIRMONT       CLEAR     54  50  86 W3        30.13S
GLENCOE        CLEAR     54  52  94 SW3       30.09S
FARIBAULT      CLEAR     54  50  87 W5        30.09S
OWATONNA       CLEAR     50  48  93 CALM      30.10S
WASECA         CLEAR     46  45  93 CALM      30.11F
ALBERT LEA     CLEAR     57  52  82 W5        30.11S
$$
MNZ078>079-086>088-094>096-231000-
   Southeast Minnesota

CITY           SKY/WX    TMP DP  RH WIND       PRES   REMARKS
ROCHESTER      CLEAR     52  49  89 W9        30.09S
RED WING       CLEAR     54  50  87 CALM      30.06S
STANTON        CLEAR     53  49  85 SW3       30.08R
DODGE CENTER   CLEAR     52  48  87 W8        30.09S
WINONA         CLEAR     55  50  82 NW3       30.06S
AUSTIN         CLEAR     55  48  76 W8        30.10S
PRESTON        CLEAR     53  47  82 W9        30.09S
$$
ABBREVIATIONS USED IN REMARKS
   TC - TEMPERATURES IN CELSIUS
  WCI - WIND CHILL INDEX
   HX - HEAT INDEX
  VSB - VISIBILITY
$$



USA.gov is the U.S. government's official web portal to all federal, state and local government web resources and services.